Weather History for Surat Thani, Thailand

Change the Weather History Date:

Wednesday, October 30, 2013

  Actual Average Record
Temperature  
Mean Temperature 82 °F -  
Max Temperature 91 °F 85 °F - ()
Min Temperature 73 °F 72 °F - ()
Cooling Degree Days 17    
Growing Degree Days 32 (Base 50)    
Moisture  
Dew Point 78 °F    
Average Humidity 89    
Maximum Humidity 100    
Minimum Humidity 54    
Precipitation  
Precipitation 0.00 in 0.43 in - ()
Sea Level Pressure  
Sea Level Pressure 29.89 in    
Wind  
Wind Speed 3 mph ()    
Max Wind Speed 15 mph    
Max Gust Speed -    
Visibility 3.5 miles    
Events Fog    
T = Trace of Precipitation, MM = Missing Value Source: Averaged Metar Reports

Daily Weather History Graph

Daily Weather History Graph

Search for Another Location

Airport:

Trip Planner

Search our weather history database for the weather conditions in past years. The results will help you decide how hot, cold, wet, or windy it might be!

Date:

Astronomy

Oct. 30, 2013 Rise Set
Actual Time 6:12 AM ICT 6:01 PM ICT
Civil Twilight 5:51 AM ICT 6:22 PM ICT
Nautical Twilight 5:26 AM ICT 6:47 PM ICT
Astronomical Twilight 5:01 AM ICT 7:12 PM ICT
Moon 2:20 AM ICT (10/30) 2:46 PM ICT (10/30)
Length of Visible Light 12h 31m
Length of Day
11h 48m
Waning Crescent, 21% of the Moon is Illuminated
Oct 30
Waning Crescent
Nov 3
New
Nov 10
First Quarter
Nov 17
Full
Nov 26
Last Quarter

Hourly Weather History & Observations

Time (ICT) Temp. Heat Index Dew Point Humidity Pressure Visibility Wind Dir Wind Speed Gust Speed Precip Events Conditions
1:00 AM 76 °F - 76 °F 98% 29.91 in 3 mi Calm Calm - -   Mist
6:00 AM 73.4 °F - 73.4 °F 100% 29.89 in 0.3 mi Calm Calm - N/A Fog Fog
7:00 AM 75 °F - 75 °F 100% 29.91 in 0 mi Calm Calm - - Fog Heavy Fog
7:00 AM 73.4 °F - 73.4 °F 100% 29.92 in 0.3 mi Calm Calm - N/A Fog Fog
8:00 AM 75.2 °F - 75.2 °F 100% 29.92 in 0.4 mi Calm Calm - N/A Fog Fog
9:00 AM 77.0 °F - 77.0 °F 100% 29.95 in 0.9 mi Calm Calm - N/A   Overcast
10:00 AM 80.6 °F 89.3 °F 80.6 °F 100% 29.98 in 3.7 mi Calm Calm - N/A   Mostly Cloudy
11:00 AM 86.0 °F 101.9 °F 80.6 °F 84% 29.95 in 5.0 mi ESE 3.5 mph - N/A   Mostly Cloudy
12:00 PM 87.8 °F 102.5 °F 78.8 °F 75% 29.92 in 6.2 mi East 5.8 mph - N/A   Mostly Cloudy
1:00 PM 90 °F - 76 °F 54% 29.88 in 6 mi North 3.5 mph - -   Partly Cloudy
1:00 PM 89.6 °F 104.7 °F 78.8 °F 70% 29.86 in 6.2 mi NNE 8.1 mph - N/A   Mostly Cloudy
3:00 PM 87.8 °F 102.5 °F 78.8 °F 75% 29.80 in 5.0 mi NE 15.0 mph - N/A   Scattered Clouds
4:00 PM 87.8 °F 102.5 °F 78.8 °F 75% 29.80 in 5.0 mi NE 15.0 mph - N/A   Scattered Clouds
6:00 PM 84.2 °F 96.1 °F 78.8 °F 84% 29.83 in 4.3 mi NE 12.7 mph - N/A   Scattered Clouds
7:00 PM 82 °F - 78 °F 85% 29.83 in 5 mi Calm Calm - -   Mist
7:00 PM 82.4 °F 92.4 °F 78.8 °F 89% 29.83 in 4.3 mi ENE 8.1 mph - N/A   Scattered Clouds
8:00 PM 80.6 °F 89.3 °F 80.6 °F 100% 29.86 in 3.7 mi NW 4.6 mph - N/A   Scattered Clouds
10:00 PM 78.8 °F - 78.8 °F 100% 29.92 in 3.7 mi Calm Calm - N/A   Scattered Clouds
11:00 PM 77.0 °F - 77.0 °F 100% 29.89 in 3.7 mi NW 3.5 mph - N/A   Scattered Clouds